Regional Weather Roundup
Issued by NWS Sioux Falls, SD

Home | Current Version | Previous Version | Text Only | Print | Product List | Glossary Off
Versions: 1 2 3 4 5 6 7 8 9 10 11 12 13 14 15 16 17 18 19 20 21 22 23 24 25 26 27 28 29 30 31 32 33 34 35 36 37 38 39 40 41 42 43 44 45 46 47 48 49 50

000
ASUS43 KFSD 290202
RWRFSD

WEATHER ROUNDUP FOR SE SOUTH DAKOTA/SW MINNESOTA/NW IOWA
NATIONAL WEATHER SERVICE SIOUX FALLS SD
800 PM CST FRI NOV 28 2014

NOTE: "FAIR" INDICATES FEW OR NO CLOUDS BELOW 12,000 FEET WITH NO
SIGNIFICANT WEATHER AND OR OBSTRUCTIONS TO VISIBILITY.


SDZ038>040-050-052>070-290300-
SOUTHEAST SOUTH DAKOTA

CITY           SKY/WX    TMP DP  RH WIND       PRES   REMARKS
CHAMBERLAIN    NOT AVBL
HURON          CLEAR     28  25  88 SE7       29.61F WCI  21
MADISON        FAIR      25  25 100 E7        29.64F WCI  17
MITCHELL       PTCLDY    28  25  88 E6        29.62F WCI  22
SIOUX FALLS    PTCLDY    25  22  88 E8        29.64F WCI  16
WINNER         FAIR      44  29  55 SE10      29.55F
YANKTON        PTCLDY    30  27  86 E7        29.63F WCI  23
$$

MNZ071-072-080-081-089-090-097-098-290300-
SOUTHWEST MINNESOTA

CITY           SKY/WX    TMP DP  RH WIND       PRES   REMARKS
FAIRMONT       PTCLDY    19  16  86 SE7       29.71F WCI  10
JACKSON        PTCLDY    21  19  93 E7        29.69F WCI  13
LUVERNE        CLEAR     27  23  86 NE6       29.66F FOG     WCI  20
MARSHALL       MOCLDY    18  14  86 SE6       29.70F WCI   9
MONTEVIDEO     CLOUDY    19  18  93 S9        29.73F WCI   9
PIPESTONE      CLEAR     25  23  93 SE8       29.64F WCI  16
REDWOOD FALLS  PTCLDY    21  17  84 E9        29.72F WCI  11
TRACY          PTCLDY    19  18  94 SE7       29.69F WCI  10
WINDOM         MOCLDY    19  18  93 E6        29.70F WCI  11
WORTHINGTON    PTCLDY    19  18  93 E5        29.68S WCI  13
$$

IAZ001>003-012>014-020>022-031-032-NEZ013-014-SDZ071-290300-
NORTHWEST IOWA

CITY           SKY/WX    TMP DP  RH WIND       PRES   REMARKS
DENISON        PTCLDY    39  32  75 S6        29.63F
ESTHERVILLE    PTCLDY    19  17  92 SE8       29.70F WCI   9
SIOUX CITY     PTCLDY    35  28  75 E7        29.63F WCI  29
SPENCER        PTCLDY    23  20  88 E8        29.68F WCI  14
$$

ABBREVIATIONS USED IN REMARKS
   TC - TEMPERATURE IN CELSIUS
  WCI - WIND CHILL INDEX
   HX - HEAT INDEX
  VSB - VISIBILITY



USA.gov is the U.S. government's official web portal to all federal, state and local government web resources and services.